Time,TemperatureF,DewpointF,PressureIn,WindDirection,WindDirectionDegrees,WindSpeedMPH,WindSpeedGustMPH,Humidity,HourlyPrecipIn,Conditions,Clouds,dailyrainin,SoftwareType,DateUTC
2013-04-02 00:12:00,37.8,33.0,30.06,North,360,0.0,3.0,82,0.00,,,0.00,weatherlink.com 1.10,2013-04-02 06:12:00,
2013-04-02 00:27:00,37.8,33.0,30.05,NNE,19,3.0,5.0,83,0.00,,,0.00,weatherlink.com 1.10,2013-04-02 06:27:00,
2013-04-02 00:42:00,37.6,33.0,30.05,NNW,336,1.0,5.0,82,0.00,,,0.00,weatherlink.com 1.10,2013-04-02 06:42:00,
2013-04-02 00:57:00,37.5,33.0,30.05,WNW,300,0.0,2.0,83,0.00,,,0.00,weatherlink.com 1.10,2013-04-02 06:57:00,
2013-04-02 01:12:00,37.5,33.0,30.05,WNW,300,0.0,2.0,83,0.00,,,0.00,weatherlink.com 1.10,2013-04-02 07:12:00,
2013-04-02 01:27:00,37.6,33.0,30.05,WNW,300,0.0,2.0,83,0.00,,,0.00,weatherlink.com 1.10,2013-04-02 07:27:00,
2013-04-02 01:42:00,37.7,33.0,30.05,WNW,300,0.0,0.0,83,0.00,,,0.00,weatherlink.com 1.10,2013-04-02 07:42:00,
2013-04-02 01:57:00,37.8,33.0,30.06,WNW,300,0.0,0.0,83,0.00,,,0.00,weatherlink.com 1.10,2013-04-02 07:57:00,
2013-04-02 02:12:00,37.9,33.0,30.06,WNW,300,0.0,2.0,82,0.00,,,0.00,weatherlink.com 1.10,2013-04-02 08:12:00,
2013-04-02 02:27:00,38.0,33.0,30.05,WNW,300,0.0,3.0,81,0.00,,,0.00,weatherlink.com 1.10,2013-04-02 08:27:00,
2013-04-02 02:42:00,38.1,33.0,30.05,WNW,301,0.0,2.0,81,0.00,,,0.00,weatherlink.com 1.10,2013-04-02 08:42:00,
2013-04-02 02:57:00,38.1,33.0,30.05,WNW,302,0.0,3.0,82,0.00,,,0.00,weatherlink.com 1.10,2013-04-02 08:57:00,
2013-04-02 03:12:00,38.1,33.0,30.05,WNW,302,0.0,2.0,81,0.00,,,0.00,weatherlink.com 1.10,2013-04-02 09:12:00,
2013-04-02 03:42:00,38.3,33.0,30.05,WNW,302,0.0,1.0,80,0.00,,,0.00,weatherlink.com 1.10,2013-04-02 09:42:00,
2013-04-02 03:57:00,38.2,32.0,30.05,North,5,0.0,2.0,79,0.00,,,0.00,weatherlink.com 1.10,2013-04-02 09:57:00,
2013-04-02 04:13:00,38.2,32.0,30.04,North,10,1.0,2.0,79,0.00,,,0.00,weatherlink.com 1.10,2013-04-02 10:13:00,
2013-04-02 04:27:00,37.9,32.0,30.05,NE,34,0.0,3.0,78,0.00,,,0.00,weatherlink.com 1.10,2013-04-02 10:27:00,
2013-04-02 04:42:00,37.8,32.0,30.05,NE,36,0.0,2.0,78,0.00,,,0.00,weatherlink.com 1.10,2013-04-02 10:42:00,
2013-04-02 04:58:00,37.7,31.0,30.05,NE,36,1.0,3.0,78,0.00,,,0.00,weatherlink.com 1.10,2013-04-02 10:58:00,
2013-04-02 05:13:00,37.6,31.0,30.05,NE,36,0.0,2.0,78,0.00,,,0.00,weatherlink.com 1.10,2013-04-02 11:13:00,
2013-04-02 05:28:00,37.5,31.0,30.05,NE,36,1.0,2.0,78,0.00,,,0.00,weatherlink.com 1.10,2013-04-02 11:28:00,
2013-04-02 05:58:00,37.5,32.0,30.04,NE,35,0.0,3.0,79,0.00,,,0.00,weatherlink.com 1.10,2013-04-02 11:58:00,
2013-04-02 06:13:00,37.5,32.0,30.05,NE,35,0.0,2.0,79,0.00,,,0.00,weatherlink.com 1.10,2013-04-02 12:13:00,
2013-04-02 06:28:00,37.4,31.0,30.04,NNW,336,0.0,1.0,78,0.00,,,0.00,weatherlink.com 1.10,2013-04-02 12:28:00,
2013-04-02 06:43:00,37.4,31.0,30.05,NNW,336,0.0,1.0,78,0.00,,,0.00,weatherlink.com 1.10,2013-04-02 12:43:00,
2013-04-02 06:58:00,37.4,31.0,30.05,NNW,336,0.0,1.0,78,0.00,,,0.00,weatherlink.com 1.10,2013-04-02 12:58:00,
2013-04-02 07:13:00,37.4,31.0,30.05,NNW,336,0.0,2.0,78,0.00,,,0.00,weatherlink.com 1.10,2013-04-02 13:13:00,
2013-04-02 07:28:00,37.5,31.0,30.05,NNW,341,1.0,2.0,78,0.00,,,0.00,weatherlink.com 1.10,2013-04-02 13:28:00,
2013-04-02 07:43:00,37.7,31.0,30.05,NNE,19,0.0,3.0,78,0.00,,,0.00,weatherlink.com 1.10,2013-04-02 13:43:00,
2013-04-02 07:58:00,38.0,32.0,30.05,NNE,19,2.0,3.0,78,0.00,,,0.00,weatherlink.com 1.10,2013-04-02 13:58:00,
2013-04-02 08:13:00,38.1,32.0,30.05,NNE,33,1.0,3.0,78,0.00,,,0.00,weatherlink.com 1.10,2013-04-02 14:13:00,
2013-04-02 08:28:00,38.5,32.0,30.05,NE,34,1.0,3.0,78,0.00,,,0.00,weatherlink.com 1.10,2013-04-02 14:28:00,
2013-04-02 08:43:00,38.8,32.0,30.05,NNE,33,0.0,3.0,77,0.00,,,0.00,weatherlink.com 1.10,2013-04-02 14:43:00,
2013-04-02 08:58:00,39.1,32.0,30.05,ENE,63,0.0,2.0,75,0.00,,,0.00,weatherlink.com 1.10,2013-04-02 14:58:00,
2013-04-02 09:13:00,39.3,32.0,30.05,NNE,28,2.0,3.0,76,0.00,,,0.00,weatherlink.com 1.10,2013-04-02 15:13:00,
2013-04-02 09:28:00,39.5,33.0,30.05,NE,40,1.0,4.0,76,0.00,,,0.00,weatherlink.com 1.10,2013-04-02 15:28:00,
2013-04-02 09:43:00,39.7,32.0,30.05,NE,37,0.0,4.0,74,0.00,,,0.00,weatherlink.com 1.10,2013-04-02 15:43:00,
2013-04-02 09:58:00,40.1,32.0,30.06,ENE,57,1.0,5.0,73,0.00,,,0.00,weatherlink.com 1.10,2013-04-02 15:58:00,
2013-04-02 10:28:00,39.7,32.0,30.06,NNE,22,2.0,4.0,74,0.00,,,0.00,weatherlink.com 1.10,2013-04-02 16:28:00,
2013-04-02 10:43:00,39.5,32.0,30.06,East,92,6.0,6.0,74,0.00,,,0.00,weatherlink.com 1.10,2013-04-02 16:43:00,
2013-04-02 10:58:00,39.5,32.0,30.07,NNE,32,0.0,5.0,73,0.00,,,0.00,weatherlink.com 1.10,2013-04-02 16:58:00,
2013-04-02 11:43:00,39.2,32.0,30.07,NE,34,4.0,6.0,75,0.00,,,0.00,weatherlink.com 1.10,2013-04-02 17:43:00,
2013-04-02 11:58:00,39.5,33.0,30.07,NNE,24,1.0,6.0,77,0.00,,,0.00,weatherlink.com 1.10,2013-04-02 17:58:00,
2013-04-02 12:13:00,38.6,33.0,30.07,North,5,3.0,7.0,79,0.00,,,0.00,weatherlink.com 1.10,2013-04-02 18:13:00,
2013-04-02 12:28:00,38.6,33.0,30.07,NNW,342,2.0,5.0,81,0.00,,,0.00,weatherlink.com 1.10,2013-04-02 18:28:00,
2013-04-02 12:43:00,38.5,33.0,30.06,North,11,3.0,5.0,81,0.00,,,0.00,weatherlink.com 1.10,2013-04-02 18:43:00,
2013-04-02 12:58:00,38.8,33.0,30.06,NE,44,2.0,5.0,81,0.00,,,0.00,weatherlink.com 1.10,2013-04-02 18:58:00,
2013-04-02 13:13:00,38.4,33.0,30.06,North,360,2.0,9.0,82,0.00,,,0.00,weatherlink.com 1.10,2013-04-02 19:13:00,
2013-04-02 13:28:00,38.8,33.0,30.06,NE,38,4.0,6.0,81,0.00,,,0.00,weatherlink.com 1.10,2013-04-02 19:28:00,
2013-04-02 13:43:00,38.8,34.0,30.06,NE,51,0.0,7.0,83,0.00,,,0.00,weatherlink.com 1.10,2013-04-02 19:43:00,
2013-04-02 13:58:00,38.3,34.0,30.06,North,360,2.0,5.0,83,0.00,,,0.00,weatherlink.com 1.10,2013-04-02 19:58:00,
2013-04-02 14:13:00,38.0,33.0,30.06,NE,51,2.0,5.0,83,0.00,,,0.00,weatherlink.com 1.10,2013-04-02 20:13:00,
2013-04-02 14:28:00,38.0,34.0,30.06,North,350,3.0,4.0,85,0.00,,,0.00,weatherlink.com 1.10,2013-04-02 20:28:00,
2013-04-02 14:43:00,37.7,34.0,30.06,NNE,15,2.0,4.0,87,0.00,,,0.00,weatherlink.com 1.10,2013-04-02 20:43:00,
2013-04-02 14:58:00,36.9,33.0,30.06,NE,36,3.0,5.0,87,0.00,,,0.00,weatherlink.com 1.10,2013-04-02 20:58:00,
2013-04-02 15:13:00,36.9,34.0,30.06,NNE,24,0.0,5.0,89,0.00,,,0.00,weatherlink.com 1.10,2013-04-02 21:13:00,
2013-04-02 15:28:00,37.1,34.0,30.06,NE,43,2.0,4.0,89,0.00,,,0.00,weatherlink.com 1.10,2013-04-02 21:28:00,
2013-04-02 15:45:00,36.7,34.0,30.06,North,355,3.0,4.0,89,0.00,,,0.00,weatherlink.com 1.10,2013-04-02 21:45:00,
2013-04-02 15:58:00,36.1,33.0,30.06,NNW,340,2.0,4.0,89,0.00,,,0.00,weatherlink.com 1.10,2013-04-02 21:58:00,
2013-04-02 16:13:00,36.0,33.0,30.06,North,9,3.0,5.0,90,0.00,,,0.00,weatherlink.com 1.10,2013-04-02 22:13:00,
2013-04-02 16:28:00,36.1,34.0,30.06,North,355,2.0,6.0,90,0.00,,,0.00,weatherlink.com 1.10,2013-04-02 22:28:00,
2013-04-02 16:43:00,35.7,33.0,30.07,NNE,28,1.0,6.0,90,0.00,,,0.00,weatherlink.com 1.10,2013-04-02 22:43:00,
2013-04-02 16:58:00,35.7,33.0,30.07,North,355,3.0,7.0,90,0.00,,,0.00,weatherlink.com 1.10,2013-04-02 22:58:00,
2013-04-02 17:13:00,35.6,33.0,30.07,North,355,2.0,5.0,90,0.00,,,0.00,weatherlink.com 1.10,2013-04-02 23:13:00,
2013-04-02 17:28:00,35.7,33.0,30.08,North,350,1.0,8.0,90,0.00,,,0.00,weatherlink.com 1.10,2013-04-02 23:28:00,
2013-04-02 17:43:00,35.9,33.0,30.08,NNE,20,1.0,5.0,90,0.00,,,0.00,weatherlink.com 1.10,2013-04-02 23:43:00,
2013-04-02 17:58:00,36.1,34.0,30.09,North,5,0.0,5.0,90,0.00,,,0.00,weatherlink.com 1.10,2013-04-02 23:58:00,
2013-04-02 18:13:00,36.2,34.0,30.09,NNE,15,0.0,3.0,90,0.00,,,0.00,weatherlink.com 1.10,2013-04-03 00:13:00,
2013-04-02 18:29:00,36.1,34.0,30.10,NNE,18,3.0,7.0,90,0.00,,,0.00,weatherlink.com 1.10,2013-04-03 00:29:00,
2013-04-02 18:44:00,36.0,33.0,30.11,NNE,32,2.0,5.0,90,0.00,,,0.00,weatherlink.com 1.10,2013-04-03 00:44:00,
2013-04-02 18:59:00,35.9,34.0,30.11,NNE,19,2.0,3.0,91,0.00,,,0.00,weatherlink.com 1.10,2013-04-03 00:59:00,
2013-04-02 19:14:00,35.9,34.0,30.11,NNE,24,2.0,4.0,91,0.00,,,0.00,weatherlink.com 1.10,2013-04-03 01:14:00,
2013-04-02 19:29:00,35.8,34.0,30.12,NNE,18,0.0,3.0,91,0.00,,,0.00,weatherlink.com 1.10,2013-04-03 01:29:00,
2013-04-02 19:44:00,35.6,33.0,30.12,North,5,2.0,4.0,91,0.00,,,0.00,weatherlink.com 1.10,2013-04-03 01:44:00,
2013-04-02 19:59:00,35.2,33.0,30.12,North,351,4.0,4.0,91,0.00,,,0.00,weatherlink.com 1.10,2013-04-03 01:59:00,
2013-04-02 20:14:00,35.1,33.0,30.13,NNW,331,0.0,2.0,91,0.00,,,0.00,weatherlink.com 1.10,2013-04-03 02:14:00,
2013-04-02 20:29:00,35.1,33.0,30.13,NNW,344,0.0,3.0,91,0.00,,,0.00,weatherlink.com 1.10,2013-04-03 02:29:00,
2013-04-02 20:44:00,35.2,33.0,30.14,NNW,340,0.0,2.0,91,0.00,,,0.00,weatherlink.com 1.10,2013-04-03 02:44:00,
2013-04-02 20:59:00,35.4,33.0,30.14,WNW,298,0.0,4.0,92,0.00,,,0.00,weatherlink.com 1.10,2013-04-03 02:59:00,
2013-04-02 21:14:00,35.7,34.0,30.15,NW,304,0.0,4.0,92,0.00,,,0.00,weatherlink.com 1.10,2013-04-03 03:14:00,
2013-04-02 21:29:00,35.9,34.0,30.15,NNW,329,0.0,2.0,91,0.00,,,0.00,weatherlink.com 1.10,2013-04-03 03:29:00,
2013-04-02 21:44:00,36.1,34.0,30.15,NW,316,0.0,0.0,92,0.00,,,0.00,weatherlink.com 1.10,2013-04-03 03:44:00,
2013-04-02 21:59:00,36.2,34.0,30.15,NNW,339,1.0,3.0,91,0.00,,,0.00,weatherlink.com 1.10,2013-04-03 03:59:00,
2013-04-02 22:14:00,36.2,34.0,30.15,NNW,339,0.0,0.0,91,0.00,,,0.00,weatherlink.com 1.10,2013-04-03 04:14:00,
2013-04-02 22:29:00,36.2,34.0,30.15,NNW,339,0.0,2.0,91,0.00,,,0.00,weatherlink.com 1.10,2013-04-03 04:29:00,
2013-04-02 22:44:00,36.1,34.0,30.15,NNE,22,0.0,2.0,91,0.00,,,0.00,weatherlink.com 1.10,2013-04-03 04:44:00,
2013-04-02 22:59:00,36.1,34.0,30.15,North,351,1.0,4.0,91,0.00,,,0.00,weatherlink.com 1.10,2013-04-03 04:59:00,
2013-04-02 23:14:00,36.0,34.0,30.15,NE,36,1.0,4.0,91,0.00,,,0.00,weatherlink.com 1.10,2013-04-03 05:14:00,
2013-04-02 23:29:00,36.0,34.0,30.14,NNE,24,0.0,2.0,91,0.00,,,0.00,weatherlink.com 1.10,2013-04-03 05:29:00,
2013-04-02 23:44:00,36.0,34.0,30.14,NNE,24,0.0,2.0,91,0.00,,,0.00,weatherlink.com 1.10,2013-04-03 05:44:00,
2013-04-02 23:59:00,36.0,34.0,30.14,NNE,24,0.0,1.0,91,0.00,,,0.00,weatherlink.com 1.10,2013-04-03 05:59:00,